Location: Albany
(35.0170°S, 117.8920°E)
Time: 02:59:39
(UTC+08:00)

Vanguard 1 - Pass Details

Date: 30 January 2021
Orbit: 649 x 3833 km, 34.2° (Epoch: 26 February)

Event Time Altitude Azimuth Distance (km) Brightness Sun altitude
Rises 03:44:22 0° 263° (W) 3,315 - -18.7°
Reaches altitude 10° 03:47:01 10° 266° (W) 2,203 - -18.2°
Exits shadow 03:49:33 30° 276° (W) 1,205 10.1 -17.8°
Maximum altitude 03:51:39 61° 346° (NNW) 742 9.2 -17.5°
Drops below altitude 10° 03:56:12 10° 66° (ENE) 2,155 12.2 -16.7°
Sets 03:58:46 0° 69° (ENE) 3,235 13.2 -16.3°
